User: anonymous   Login
Location: Bangkok
(13.7500°N, 100.5170°E)
Time: 21:11:46
(UTC+07:00)
Language:

Cosmos 1898 Rocket - Orbit

View from above orbital plane
View from above orbital plane
View from above satellite
View from above satellite

Ground track
Ground track

The orbit data is extracted from the following two-line orbital elements,

1 18586U 87098B   16207.19669650 -.00000021  00000-0  18135-5 0  9995
2 18586  74.0060 177.4284 0021965 309.0927 148.2848 14.36728204500404
Epoch (UTC): 25 July 2016 04:43:14
Eccentricity: 0.0021965
inclination: 74.0060°
perigee height: 753 km
apogee height: 785 km
right ascension of ascending node: 177.4284°
argument of perigee: 309.0927°
revolutions per day: 14.36728204
mean anomaly at epoch: 148.2848°
orbit number at epoch: 50040

The dashed part of the orbit path shows where the satellite is in the earth's shadow,  

DLR